Location: Burla
(50.9568°N, 10.4983°E)
Time: 20:04:09
(UTC+00:00)

Cosmos 1869 Rocket - Pass Details

Date: 18 January 2026
Orbit: 597 x 626 km, 82.5° (Epoch: 14 February)

Event Time Altitude Azimuth Distance (km) Brightness Sun altitude
Rises 06:25:26 0° 180° (S) 2,900 7.3 -7.3°
Reaches altitude 10° 06:27:40 10° 178° (S) 1,998 6.5 -7.0°
Maximum altitude 06:32:03 66° 97° (E) 690 4.1 -6.3°
Drops below altitude 10° 06:36:28 10° 15° (NNE) 2,010 6.1 -5.7°
Sets 06:38:43 0° 13° (NNE) 2,919 6.9 -5.4°
